Location: Churchill Northern Studies Centre
(58.7378°N, 93.8201°W)
Time: 10:39:39
(UTC-06:00)

N. Korean satellite - Pass Details

Date: 13 October 2017
Orbit: 461 x 513 km, 97.2° (Epoch: 17 December)

Event Time Altitude Azimuth Distance (km) Brightness Sun altitude
Rises 18:52:12 0° 162° (SSE) 2,539 10.1 -5.8°
Reaches altitude 10° 18:54:16 10° 162° (SSE) 1,655 9.1 -6.0°
Maximum altitude 18:57:50 87° 75° (ENE) 483 6.5 -6.5°
Drops below altitude 10° 19:01:22 10° 346° (NNW) 1,643 9.4 -6.9°
Sets 19:03:24 0° 346° (NNW) 2,519 10.3 -7.2°
